This demonstration page uses our WeatherBlox Daily Observations layout. Learn more.

Left ArrowRight Arrow

Hourly Observations for October 12, 2015

Temp ( °F °C ) Dew Point ( °F °C ) Humidity (%) Winds ( mph kmh ) Pressure ( in mb ) Visibility ( mi km ) Precip ( " mm )
12:51 am 00:51 Clear 70 21.1 52 11.1 53 53 NNW 8 13 29.88 1012 10 16 N/A
1:51 am 01:51 Clear 67 19.4 54 12.2 63 63 SSE 3 6 29.91 1013 10 16 N/A
2:51 am 02:51 Clear 65 18.3 53 11.7 66 66 ESE 3 6 29.91 1013 10 16 N/A
3:51 am 03:51 Clear 61 16.1 53 11.7 75 75 SSE 6 9 29.94 1014 10 16 N/A
4:51 am 04:51 Clear 61 16.1 53 11.7 75 75 E 5 7 29.94 1014 10 16 N/A
5:51 am 05:51 Clear 59 15 53 11.7 81 81 E 5 7 29.97 1015 10 16 N/A
6:51 am 06:51 Sunny 62 16.7 53 11.7 73 73 ESE 3 6 30.00 1016 10 16 N/A
7:51 am 07:51 Sunny 67 19.4 52 11.1 59 59 N N/A 29.97 1015 10 16 N/A
8:51 am 08:51 Mostly Sunny 73 22.8 52 11.1 48 48 N N/A 29.97 1015 10 16 N/A
9:51 am 09:51 Sunny 76 24.4 52 11.1 43 43 N N/A 29.98 1015 10 16 N/A
10:51 am 10:51 Sunny 80 26.7 50 10 35 35 VRB 5 7 29.96 1015 10 16 N/A
11:51 am 11:51 Sunny 84 28.9 50 10 31 31 WNW 7 11 29.93 1014 10 16 N/A
12:51 pm 12:51 Sunny 88 31.1 45 7.2 22 22 NW 9 15 29.89 1012 10 16 N/A
1:51 pm 13:51 Sunny 89 31.7 42 5.6 19 19 undefined N/A 29.87 1012 10 16 N/A
2:51 pm 14:51 Sunny 89 31.7 43 6.1 20 20 W 9 15 29.86 1011 10 16 N/A
3:51 pm 15:51 Sunny 88 31.1 48 8.9 25 25 WNW 8 13 29.87 1012 10 16 N/A
4:51 pm 16:51 Sunny 87 30.6 46 7.8 24 24 NW 9 15 29.87 1012 10 16 N/A
5:51 pm 17:51 Clear 84 28.9 46 7.8 27 27 WNW 9 15 29.89 1012 10 16 N/A
6:51 pm 18:51 Clear 81 27.2 49 9.4 33 33 NNW 10 17 29.91 1013 10 16 N/A
7:51 pm 19:51 Clear 79 26.1 50 10 36 36 NW 9 15 29.93 1013 10 16 N/A
8:51 pm 20:51 Clear 77 25 50 10 39 39 NNW 10 17 29.94 1014 10 16 N/A
9:51 pm 21:51 Clear 73 22.8 50 10 44 44 NNW 6 9 29.96 1015 10 16 N/A
10:51 pm 22:51 Clear 73 22.8 50 10 44 44 NW 8 13 29.96 1015 10 16 N/A
11:51 pm 23:51 Clear 72 22.2 50 10 46 46 NW 3 6 29.95 1014 10 16 N/A

Powered by AerisWeather